[[{"header":{"parameterUnit":"m.s-1","parameterCategory":1,"la1":30.2991,"la2":30.254,"lo1":-89.0895,"lo2":-89.0444,"dy":0.0017,"dx":0.0017,"nx":28,"ny":28,"refTime":"2025-08-13T03:00:00:Z","depth":0,"parameterNumber":2,"parameterNumberName":"U-component_of_WINDS"},"data":[0,0,0,0,0,0,0,0,0,0,0,0,0,0,0,0,0,0,0,0,0,0,0,0,0,0,0,0,0,0,0,0,0,0,0,0,0,0,0,0,0,0,0,0,0,0,0,0,0,0,0,0,0,0,0,0,0,0,4.8511,4.8512,0,4.862,4.8621,4.8622,4.8517,4.8513,4.8509,4.8505,4.8617,4.8624,4.863,0,0,0,0,0,0,0,0,0,0,0,0,0,4.8209,4.8215,4.851,4.8512,4.8513,4.8619,4.8621,4.8622,4.8518,4.8513,4.8508,4.8503,4.8615,4.8623,4.8631,0,0,0,0,0,0,0,0,0,0,0,0,0,4.8331,4.8217,4.851,4.8474,4.8472,4.8619,4.8621,4.8623,4.8519,4.8513,4.8507,4.8501,4.8612,4.8622,4.8632,4.8821,0,0,4.8664,4.8668,0,0,0,0,0,0,0,0,4.8324,4.8342,4.8478,4.8477,4.8475,4.8548,4.8555,4.8689,4.8521,4.8501,4.8505,4.8498,4.8599,4.861,4.8644,4.8826,4.8831,4.8664,4.8671,4.8675,4.8678,0,0,0,0,0,0,0,4.8316,4.8337,4.8554,4.848,4.8478,4.8451,4.8462,4.858,4.8584,4.8502,4.8495,4.851,4.8597,4.8635,4.8646,4.8832,4.8664,4.8673,4.868,4.8684,4.9168,4.9174,0,0,0,0,0,0,4.8312,4.8331,4.855,4.8557,4.8383,4.8462,4.8474,4.8531,4.8582,4.8584,4.8515,4.8504,4.862,4.8634,4.865,4.8869,4.8675,4.8685,4.8691,4.9161,4.9169,4.9177,0,0,0,0,0,0,4.8306,4.8332,4.8546,4.8442,4.8467,4.8474,4.8539,4.8537,4.8574,4.8592,4.8592,4.8553,4.8616,4.8635,4.8778,4.8871,4.8689,4.8699,4.9153,4.9164,4.9173,4.9312,0,0,0,0,0,0,4.8298,4.8331,4.8403,4.8444,4.8473,4.8673,4.8545,4.8543,4.8592,4.8579,4.8627,4.8629,4.8612,4.8763,4.8788,4.8882,4.8707,4.9145,4.9158,4.917,4.9299,4.9326,4.9348,0,0,0,0,0,4.8287,4.8439,4.8408,4.8435,4.8564,4.8679,4.8695,4.8673,4.86,4.8672,4.8683,4.8627,4.8858,4.8778,4.8806,4.8905,4.9139,4.9154,4.9169,4.9288,4.932,4.9348,0,0,0,0,0,0,4.841,4.8444,4.8409,4.8579,4.8627,4.8661,4.8751,4.8709,4.8778,4.8763,4.8732,4.8744,4.8893,4.8914,4.8824,4.9087,4.8986,4.9008,4.9068,4.9099,4.9123,4.9113,4.8715,0,0,0,0,0,4.8457,4.8548,4.8573,4.872,4.8746,4.8745,4.8794,4.8773,4.882,4.884,4.8861,4.8909,4.8992,4.9047,4.9125,4.9303,4.9309,4.9384,4.9409,4.9429,4.9446,4.9536,4.9569,4.9226,4.9226,4.9226,0,0,4.8554,4.8584,4.8644,4.8746,4.878,4.8873,4.8762,4.8867,4.8934,4.8856,4.8989,4.9008,4.9059,4.9218,4.929,4.924,4.9543,4.9448,4.9464,4.947,4.9555,4.9588,4.9616,4.9236,4.9235,4.9233,0,0,4.8778,4.8813,4.8936,4.8973,4.9025,4.9023,4.9053,4.9093,4.9101,4.9236,4.9177,4.9257,4.9402,4.9439,4.9477,4.9713,4.9663,4.974,4.9867,4.9955,4.9982,5.0006,5.0085,5.0114,4.9758,4.9758,4.9759,0,4.8893,4.9031,4.9006,4.9113,4.9157,4.909,4.9214,4.925,4.9326,4.9358,4.9301,4.9478,4.9509,4.9673,4.973,4.9765,4.9795,4.9732,4.9981,5.0004,5.0026,5.01,5.0131,4.9767,4.9766,4.9765,4.9764,0,4.9166,4.9263,4.9357,4.943,4.9486,4.9601,4.9591,4.9651,4.9625,4.9628,4.9763,4.9797,4.9878,4.9917,4.9893,5.0077,5.0044,4.9985,4.9882,5.0067,5.0137,5.0166,4.9779,4.9776,4.9774,4.9771,0,0,4.947,4.9526,4.956,4.959,4.9643,4.9716,4.9828,4.9906,4.9955,5.001,5.0099,5.0222,5.0166,5.021,5.019,5.0268,5.0446,5.0199,5.0199,5.0239,5.0645,5.0685,5.0719,5.0415,5.042,5.0425,5.0638,0,4.9691,4.9883,4.9862,5.0045,5.0131,5.0068,5.0164,5.0206,5.0212,5.0285,5.0291,5.0376,5.03,5.0324,5.0399,5.0408,5.0526,5.0393,5.0494,5.0498,5.0478,5.0756,5.08,5.1,5.0666,5.0671,5.0674,0,4.9975,5.0037,5.0228,5.0263,5.0298,5.0385,5.0453,5.0525,5.057,5.0568,5.0616,5.0581,5.069,5.0588,5.0736,5.0646,5.0686,5.0697,5.0704,5.0708,5.0594,5.0763,5.1064,5.1092,5.0718,5.0714,5.0711,0,5.017,5.0303,5.0432,5.0461,5.0507,5.0568,5.059,5.0629,5.0676,5.0736,5.0765,5.0837,5.0876,5.0932,5.0916,5.0845,5.1066,5.0964,5.1064,5.1064,5.111,5.1106,5.1416,5.1145,5.1144,5.1144,5.1143,0,5.0417,5.0534,5.0519,5.0599,5.0728,5.0703,5.0831,5.0845,5.0879,5.0958,5.091,5.0985,5.0963,5.1036,5.1026,5.1146,5.1166,5.1165,5.1159,5.1166,5.1166,5.1189,5.1172,5.1152,5.115,5.1148,5.1147,0,5.0655,5.065,5.0786,5.0818,5.0829,5.0922,5.0948,5.1021,5.1023,5.1124,5.1146,5.1148,5.1232,5.1223,5.1318,5.131,5.1458,5.1439,5.1443,5.1436,5.1535,5.1523,5.1866,5.1907,5.1615,5.1617,5.162,0,5.081,5.0898,5.0939,5.0988,5.1014,5.1095,5.1141,5.112,5.1171,5.1227,5.1293,5.1372,5.1434,5.157,5.158,5.1651,5.1629,5.1745,5.164,5.1642,5.1624,5.1617,5.1623,5.1764,5.1767,5.177,5.1772,0,5.1084,5.1076,5.1146,5.1215,5.1272,5.1325,5.1373,5.1416,5.1399,5.1459,5.1543,5.1591,5.1686,5.1764,5.183,5.1851,5.1808,5.1806,5.1831,5.1837,5.1832,5.183,5.1493,5.1797,5.1794,5.1793,5.1791,5.179,5.1281,5.1355,5.1394,5.1472,5.1506,5.1551,5.162,5.163,5.17,5.1775,5.1759,5.1852,5.1892,5.1976,5.2004,5.2076,5.2034,5.2073,5.2081,5.209,5.2099,5.1825,5.2089,5.2088,5.2087,5.2087,5.2086,0,5.1547,5.1569,5.1642,5.1709,5.177,5.1725,5.1775,5.1828,5.1912,5.1952,5.2013,5.2108,5.2183,5.2198,5.2268,5.2323,5.2304,5.2341,5.2334,5.2339,5.2135,5.2103,5.2355,5.2355,5.2354,5.2354,5.2354,5.2354,5.1693,5.1813,5.181,5.1946,5.1967,5.2058,5.209,5.213,5.2161,5.2269,5.2331,5.234,5.2369,5.2441,5.2506,5.2508,5.2534,5.2578,5.2572,5.2381,5.2354,5.2328,5.2297,5.2585,5.2586,5.2769,5.277,5.2772]},{"header":{"parameterUnit":"m.s-1","parameterCategory":1,"la1":30.2991,"la2":30.254,"lo1":-89.0895,"lo2":-89.0444,"dy":0.0017,"dx":0.0017,"nx":28,"ny":28,"refTime":"2025-08-13T03:00:00:Z","depth":0,"parameterNumber":3,"parameterNumberName":"V-component_of_WINDS"},"data":[0,0,0,0,0,0,0,0,0,0,0,0,0,0,0,0,0,0,0,0,0,0,0,0,0,0,0,0,0,0,0,0,0,0,0,0,0,0,0,0,0,0,0,0,0,0,0,0,0,0,0,0,0,0,0,0,0,0,2.9934,2.9935,0,3.0003,3.0004,3.0004,2.9984,2.9983,2.9981,2.998,3.0048,3.0051,3.0054,0,0,0,0,0,0,0,0,0,0,0,0,0,2.978,2.9783,2.9934,2.9935,2.9936,3.0003,3.0004,3.0005,2.9984,2.9983,2.9981,2.9979,3.0047,3.005,3.0054,0,0,0,0,0,0,0,0,0,0,0,0,0,2.9848,2.9784,2.9934,2.9934,2.9934,3.0002,3.0004,3.0005,2.9985,2.9983,2.9981,2.9979,3.0046,3.005,3.0055,3.0126,0,0,3.0069,3.0071,0,0,0,0,0,0,0,0,2.9844,2.9853,2.9933,2.9934,2.9935,2.9983,2.9974,3.0045,2.9985,2.9966,2.998,2.9978,3.0028,3.0034,3.0051,3.0129,3.0132,3.0069,3.0072,3.0074,3.0076,0,0,0,0,0,0,0,2.9839,2.985,2.9961,2.9934,2.9935,2.9929,2.9936,2.9988,3.0008,2.9967,2.9966,2.9974,3.0028,3.0047,3.0053,3.0133,3.0069,3.0073,3.0076,3.0078,3.027,3.0272,0,0,0,0,0,0,2.9835,2.9847,2.9959,2.9963,2.9883,2.9933,2.9941,2.9969,3.0007,3.0011,2.9976,2.9973,3.004,3.0047,3.0055,3.0139,3.0074,3.0079,3.0081,3.0267,3.027,3.0273,0,0,0,0,0,0,2.9831,2.9845,2.9956,2.9905,2.9918,2.9938,2.997,2.9972,2.9991,3.0014,3.0017,2.9992,3.0038,3.0048,3.0108,3.0141,3.0081,3.0085,3.0265,3.0268,3.0271,3.0308,0,0,0,0,0,0,2.9827,2.9844,2.9872,2.9905,2.9921,3.001,2.9972,2.9975,2.9999,2.9996,3.003,3.0033,3.0038,3.0101,3.0113,3.0146,3.0089,3.0262,3.0266,3.027,3.0304,3.0313,3.032,0,0,0,0,0,2.9822,2.988,2.9874,2.9888,2.9957,3.0012,3.002,3.0025,3.0002,3.003,3.0044,3.0032,3.0136,3.0107,3.012,3.0156,3.026,3.0265,3.027,3.0301,3.0311,3.032,0,0,0,0,0,0,2.985,2.9885,2.9878,2.9949,2.9978,3.0008,3.0044,3.0036,3.0071,3.0066,3.0069,3.0077,3.0138,3.0153,3.0121,3.0225,3.0194,3.0202,3.0213,3.0223,3.0231,3.0225,3.0093,0,0,0,0,0,2.9865,2.9907,2.9934,2.9994,3.0009,3.0024,3.0048,3.0049,3.0078,3.0089,3.0108,3.0136,3.0174,3.02,3.0236,3.0306,3.0312,3.0337,3.0345,3.0351,3.0357,3.0392,3.0403,3.0289,3.0289,3.0289,0,0,2.9896,2.9919,2.9946,3.0001,3.0023,3.0065,3.0034,3.0081,3.0111,3.0096,3.0153,3.0168,3.0199,3.0263,3.0292,3.0277,3.039,3.0357,3.0362,3.0365,3.0399,3.0409,3.0419,3.0293,3.0292,3.0292,0,0,2.9972,2.9996,3.0047,3.007,3.0103,3.0112,3.0125,3.0156,3.0165,3.0222,3.0211,3.0247,3.0314,3.0335,3.0355,3.0437,3.0427,3.0449,3.0489,3.0524,3.0533,3.054,3.0568,3.0578,3.0456,3.0456,3.0456,0,3.0006,3.007,3.0074,3.0121,3.0144,3.0133,3.0183,3.0205,3.0248,3.0264,3.0247,3.0329,3.0349,3.0417,3.0437,3.0454,3.0466,3.0445,3.0531,3.0539,3.0547,3.0572,3.0583,3.0458,3.0458,3.0458,3.0458,0,3.0108,3.0152,3.0189,3.0232,3.0259,3.0308,3.0318,3.0345,3.0343,3.0353,3.041,3.0433,3.0474,3.049,3.0489,3.0557,3.0546,3.053,3.0499,3.056,3.0584,3.0594,3.0462,3.0461,3.046,3.046,0,0,3.0206,3.0249,3.0262,3.028,3.0315,3.0349,3.0395,3.0435,3.0457,3.0487,3.0525,3.058,3.0565,3.0587,3.0588,3.0618,3.0679,3.0598,3.0599,3.0611,3.0752,3.0763,3.0775,3.0672,3.0674,3.0676,3.0749,0,3.0284,3.0367,3.0371,3.0446,3.0485,3.0474,3.0514,3.0539,3.0549,3.0583,3.0594,3.0632,3.0611,3.0623,3.0653,3.0665,3.0707,3.066,3.0705,3.0707,3.0696,3.0788,3.08,3.0868,3.0759,3.076,3.0762,0,3.0387,3.042,3.0498,3.0526,3.0542,3.0579,3.0614,3.0647,3.0674,3.0679,3.0703,3.0698,3.0744,3.0711,3.0773,3.0741,3.0759,3.0767,3.077,3.0773,3.0737,3.0792,3.0891,3.09,3.0777,3.0776,3.0775,0,3.0447,3.0511,3.0566,3.0582,3.0616,3.0641,3.0656,3.0681,3.0703,3.0734,3.0748,3.0783,3.0802,3.0828,3.0833,3.0809,3.0893,3.0862,3.0897,3.0897,3.0914,3.0913,3.1016,3.0929,3.0929,3.0929,3.0928,0,3.0533,3.0582,3.0593,3.0627,3.0679,3.0683,3.0734,3.0747,3.0769,3.0803,3.0795,3.0827,3.0832,3.0865,3.0868,3.0917,3.0926,3.093,3.093,3.093,3.0929,3.0941,3.0935,3.0931,3.0931,3.093,3.093,0,3.061,3.062,3.0678,3.0705,3.0713,3.075,3.0772,3.0803,3.0812,3.0855,3.0865,3.0879,3.0916,3.0923,3.0968,3.097,3.1028,3.1024,3.1019,3.1018,3.1051,3.1047,3.1164,3.1179,3.1084,3.1085,3.1086,0,3.0664,3.07,3.073,3.0753,3.0769,3.0806,3.0829,3.0833,3.0856,3.0888,3.0915,3.0952,3.0981,3.1042,3.1054,3.1088,3.1083,3.1122,3.1088,3.1086,3.1081,3.1078,3.1081,3.1128,3.1129,3.113,3.1131,0,3.0757,3.0759,3.0793,3.0828,3.0855,3.0883,3.0909,3.0927,3.0934,3.0961,3.1,3.1023,3.1067,3.1103,3.1136,3.115,3.114,3.1141,3.115,3.115,3.1145,3.1146,3.1034,3.1138,3.1137,3.1137,3.1136,3.1136,3.0822,3.0853,3.0878,3.0915,3.0935,3.0959,3.0989,3.1001,3.1033,3.107,3.107,3.1112,3.1135,3.1178,3.1194,3.1225,3.1213,3.1227,3.123,3.1233,3.1235,3.1141,3.1231,3.1231,3.1231,3.1231,3.1231,0,3.0913,3.0928,3.0962,3.0999,3.1027,3.1017,3.1044,3.1068,3.1105,3.1128,3.1157,3.12,3.1234,3.1249,3.1282,3.1304,3.13,3.1312,3.131,3.1313,3.1246,3.1233,3.1314,3.1314,3.1314,3.1314,3.1314,3.1314,3.0964,3.1014,3.102,3.1079,3.1094,3.1135,3.1151,3.1172,3.119,3.1239,3.1267,3.1277,3.1296,3.133,3.136,3.1363,3.1375,3.1388,3.1389,3.1326,3.1318,3.131,3.1298,3.1391,3.1391,3.1453,3.1454,3.1454]}]]